Christchurch, New Zealand

10:28 PM NZDT on December 18, 2017 (GMT +1300)
Christchurch International

Weather History for NZCH - February, 2013

Change the Weather History Date:

Tuesday, February 12, 2013

  Actual Average Record
Temperature  
Mean Temperature 60 °F -  
Max Temperature 66 °F 68 °F 87 °F (2000)
Min Temperature 53 °F 50 °F 44 °F (1999)
Degree Days  
Heating Degree Days 6    
Growing Degree Days 10 (Base 50)    
Moisture  
Dew Point 54 °F    
Average Humidity 81    
Maximum Humidity 94    
Minimum Humidity 60    
Precipitation  
Precipitation 0.00 in - - ()
Sea Level Pressure  
Sea Level Pressure 29.88 in    
Wind  
Wind Speed 8 mph ()    
Max Wind Speed 15 mph    
Max Gust Speed -    
Visibility 6.2 miles    
Events      
Averages and records for this station are not official NWS values.
T = Trace of Precipitation, MM = Missing Value Source: Averaged Metar Reports

Daily Weather History Graph

Daily Weather History Graph

Search for Another Location

Airport or City:

Trip Planner

Search our weather history database for the weather conditions in past years. The results will help you decide how hot, cold, wet, or windy it might be!

Date:

Astronomy

Feb. 12, 2013 Rise Set
Actual Time 6:45 AM NZDT 8:41 PM NZDT
Civil Twilight 6:14 AM NZDT 9:12 PM NZDT
Nautical Twilight 5:36 AM NZDT 9:50 PM NZDT
Astronomical Twilight 4:55 AM NZDT 10:31 PM NZDT
Moon 8:43 AM NZDT (2/12) 9:14 PM NZDT (2/12)
Length of Visible Light 14h 58m
Length of Day
13h 56m
Waxing Crescent, 3% of the Moon is Illuminated
Feb 12
Waxing Crescent
Feb 18
First Quarter
Feb 26
Full
Mar 5
Last Quarter
Mar 12
New

Hourly Weather History & Observations

Time (NZDT) Temp. Dew Point Humidity Pressure Visibility Wind Dir Wind Speed Gust Speed Precip Events Conditions
12:00 AM 57.2 °F 51.8 °F 82% 29.95 in 6.2 mi WSW 8.1 mph - N/A   Scattered Clouds
1:00 AM 55.4 °F 51.8 °F 88% 29.95 in 6.2 mi SW 8.1 mph - N/A   Partly Cloudy
2:00 AM 57.2 °F 53.6 °F 88% 29.95 in 6.2 mi WSW 6.9 mph - N/A   Mostly Cloudy
3:00 AM 59.0 °F 53.6 °F 82% 29.95 in 6.2 mi SW 8.1 mph - N/A   Mostly Cloudy
4:00 AM 59.0 °F 53.6 °F 82% 29.95 in 6.2 mi SW 6.9 mph - N/A   Mostly Cloudy
5:00 AM 57.2 °F 53.6 °F 88% 29.92 in 6.2 mi West 3.5 mph - N/A   Mostly Cloudy
6:00 AM 55.4 °F 51.8 °F 88% 29.92 in 6.2 mi WNW 3.5 mph - N/A   Mostly Cloudy
7:00 AM 53.6 °F 51.8 °F 94% 29.95 in 6.2 mi NNW 2.3 mph - N/A   Scattered Clouds
8:00 AM 57.2 °F 53.6 °F 88% 29.95 in 6.2 mi North 2.3 mph - N/A   Scattered Clouds
9:00 AM 59.0 °F 53.6 °F 82% 29.95 in 6.2 mi ENE 9.2 mph - N/A   Mostly Cloudy
9:05 AM 60.8 °F 59.0 °F 94% 29.95 in 6.2 mi ENE 8.1 mph - N/A   Mostly Cloudy
10:00 AM 60.8 °F 53.6 °F 77% 29.95 in 6.2 mi East 12.7 mph - N/A   Mostly Cloudy
12:00 PM 64.4 °F 51.8 °F 64% 29.92 in 6.2 mi ENE 12.7 mph - N/A   Mostly Cloudy
1:00 PM 66.2 °F 51.8 °F 60% 29.92 in 6.2 mi ENE 13.8 mph - N/A   Mostly Cloudy
2:00 PM 66.2 °F 55.4 °F 68% 29.89 in 6.2 mi East 15.0 mph - N/A   Mostly Cloudy
3:00 PM 62.6 °F 53.6 °F 72% 29.86 in 6.2 mi ENE 15.0 mph - N/A   Mostly Cloudy
4:00 PM 62.6 °F 53.6 °F 72% 29.83 in 6.2 mi ENE 15.0 mph - N/A   Mostly Cloudy
5:00 PM 64.4 °F 53.6 °F 68% 29.83 in 6.2 mi ENE 15.0 mph - N/A   Mostly Cloudy
6:00 PM 64.4 °F 55.4 °F 73% 29.80 in 6.2 mi ENE 15.0 mph - N/A   Mostly Cloudy
7:00 PM 62.6 °F 55.4 °F 77% 29.80 in 6.2 mi ENE 15.0 mph - N/A   Mostly Cloudy
8:00 PM 62.6 °F 55.4 °F 77% 29.77 in 6.2 mi ENE 13.8 mph - N/A   Mostly Cloudy
9:00 PM 60.8 °F 57.2 °F 88% 29.77 in 6.2 mi ENE 11.5 mph - N/A   Mostly Cloudy
10:00 PM 60.8 °F 59.0 °F 94% 29.77 in 6.2 mi ENE 10.4 mph - N/A   Mostly Cloudy
11:00 PM 62.6 °F 59.0 °F 88% 29.74 in 6.2 mi ENE 8.1 mph - N/A   Mostly Cloudy